Location: La Pernelle
(49.6188°N, 1.2999°W)
Time: 02:52:50
(UTC+00:00)

Cosmos 676 Rocket - Visible Passes

Search period start: 23 October 2021 00:00
Search period end: 02 November 2021 00:00
Orbit: 755 x 783 km, 74.0° (Epoch: 22 October)

Date Brightness Start Highest point End Pass type
(mag) Time Alt. Az. Time Alt. Az. Time Alt. Az.
23 Oct 5.0 18:57:38 10° N 19:01:45 28° NE 19:01:45 28° NE visible
23 Oct 5.7 20:39:26 10° NNW 20:42:03 29° NW 20:42:03 29° NW visible
24 Oct 5.4 18:21:15 10° N 18:25:03 20° NE 18:25:54 19° ENE visible
24 Oct 4.8 20:02:35 10° NNW 20:06:12 46° NNW 20:06:12 46° NNW visible
25 Oct 5.8 17:45:06 10° N 17:47:52 14° NE 17:50:06 11° ENE visible
25 Oct 4.2 19:25:51 10° NNW 19:30:25 58° NNE 19:30:25 58° NNE visible
25 Oct 6.5 21:08:47 10° NW 21:10:43 17° WNW 21:10:43 17° WNW visible
26 Oct 4.4 18:49:13 10° NNW 18:54:10 41° ENE 18:54:42 40° ENE visible
26 Oct 5.7 20:31:30 10° NW 20:35:01 30° WNW 20:35:01 30° WNW visible
27 Oct 4.9 18:12:41 10° N 18:17:12 28° NE 18:19:05 23° E visible
27 Oct 4.6 19:54:29 10° NNW 19:59:24 53° W 19:59:24 53° W visible
28 Oct 5.4 17:36:18 10° N 17:40:06 20° NE 17:43:35 11° E visible
28 Oct 3.9 19:17:38 10° NNW 19:22:54 84° WSW 19:23:55 59° SSE visible
28 Oct 6.7 21:01:45 10° WNW 21:04:08 13° W 21:04:15 13° W visible
29 Oct 3.9 18:40:54 10° NNW 18:46:07 63° ENE 18:48:36 31° SE visible
29 Oct 6.1 20:23:50 10° NW 20:27:44 21° W 20:28:56 20° WSW visible
30 Oct 4.4 18:04:16 10° NNW 18:09:14 41° ENE 18:13:31 14° SE visible
30 Oct 5.5 19:46:33 10° NW 19:51:14 34° WSW 19:53:53 21° SSW visible
31 Oct 4.9 17:27:44 10° N 17:32:15 28° NE 17:36:46 10° ESE visible
31 Oct 4.7 19:09:31 10° NNW 19:14:38 53° WSW 19:19:13 13° S visible
01 Nov 4.0 18:32:40 10° NNW 18:37:57 84° WSW 18:43:14 10° SSE visible
01 Nov 6.9 20:16:46 10° WNW 20:19:11 13° W 20:21:37 10° WSW visible
